Location: Gebenbach
(49.5378°N, 11.8735°E)
Time: 01:47:14
(UTC+00:00)

CZ-4B R/B - Pass Details

Date: 29 October 2020
Orbit: 808 x 882 km, 99.1° (Epoch: 24 November)

Event Time Altitude Azimuth Distance (km) Brightness Sun altitude
Rises 16:41:50 0° 172° (S) 3,449 6.4 -8.1°
Reaches altitude 10° 16:44:15 10° 176° (S) 2,507 5.8 -8.5°
Maximum altitude 16:49:47 63° 257° (WSW) 954 3.8 -9.4°
Drops below altitude 10° 16:55:15 10° 339° (NNW) 2,478 5.8 -10.3°
Sets 16:57:38 0° 343° (NNW) 3,406 6.5 -10.7°
